Time,TemperatureF,DewpointF,PressureIn,WindDirection,WindDirectionDegrees,WindSpeedMPH,WindSpeedGustMPH,Humidity,HourlyPrecipIn,Conditions,Clouds,dailyrainin,SoftwareType,DateUTC
2013-02-23 00:14:00,37.6,36.0,30.18,North,5,0.0,-999.0,92,-99.99,,,0.00,weatherlink.com 1.10,2013-02-23 05:14:00,
2013-02-23 00:29:00,37.6,36.0,30.17,NW,304,0.0,-999.0,92,-99.99,,,0.00,weatherlink.com 1.10,2013-02-23 05:29:00,
2013-02-23 00:44:00,37.5,35.0,30.18,North,5,0.0,-999.0,92,-99.99,,,0.00,weatherlink.com 1.10,2013-02-23 05:44:00,
2013-02-23 00:59:00,37.4,35.0,30.14,NE,34,0.0,-999.0,92,-99.99,,,0.00,weatherlink.com 1.10,2013-02-23 05:59:00,
2013-02-23 01:14:00,37.4,35.0,30.15,NNE,14,0.0,-999.0,92,-99.99,,,0.00,weatherlink.com 1.10,2013-02-23 06:14:00,
2013-02-23 01:29:00,37.3,35.0,30.12,NW,315,4.0,-999.0,92,-99.99,,,0.00,weatherlink.com 1.10,2013-02-23 06:29:00,
2013-02-23 01:44:00,37.3,35.0,30.12,East,90,1.0,-999.0,92,-99.99,,,0.00,weatherlink.com 1.10,2013-02-23 06:44:00,
2013-02-23 01:59:00,37.3,35.0,30.11,North,355,0.0,-999.0,92,-99.99,,,0.01,weatherlink.com 1.10,2013-02-23 06:59:00,
2013-02-23 02:14:00,37.2,35.0,30.09,NNE,19,2.0,-999.0,92,-99.99,,,0.01,weatherlink.com 1.10,2013-02-23 07:14:00,
2013-02-23 02:30:00,37.2,35.0,30.08,NNE,24,0.0,-999.0,92,-99.99,,,0.01,weatherlink.com 1.10,2013-02-23 07:30:00,
2013-02-23 02:45:00,37.1,35.0,30.09,NNE,22,2.0,-999.0,92,-99.99,,,0.01,weatherlink.com 1.10,2013-02-23 07:45:00,
2013-02-23 03:00:00,37.1,35.0,30.11,NE,56,0.0,-999.0,92,-99.99,,,0.01,weatherlink.com 1.10,2013-02-23 08:00:00,
2013-02-23 03:15:00,37.1,35.0,30.11,NNW,343,0.0,-999.0,92,-99.99,,,0.01,weatherlink.com 1.10,2013-02-23 08:15:00,
2013-02-23 03:30:00,37.2,35.0,30.10,NNW,333,0.0,-999.0,92,-99.99,,,0.01,weatherlink.com 1.10,2013-02-23 08:30:00,
2013-02-23 03:45:00,37.2,35.0,30.09,NNW,333,2.0,-999.0,92,-99.99,,,0.02,weatherlink.com 1.10,2013-02-23 08:45:00,
2013-02-23 04:00:00,37.1,35.0,30.06,NNW,348,1.0,-999.0,92,-99.99,,,0.04,weatherlink.com 1.10,2013-02-23 09:00:00,
2013-02-23 04:15:00,36.9,35.0,30.05,NE,46,0.0,-999.0,92,-99.99,,,0.05,weatherlink.com 1.10,2013-02-23 09:15:00,
2013-02-23 04:30:00,36.9,35.0,30.04,NNW,344,1.0,-999.0,92,-99.99,,,0.06,weatherlink.com 1.10,2013-02-23 09:30:00,
2013-02-23 04:46:00,36.8,35.0,30.06,NNE,28,0.0,-999.0,92,-99.99,,,0.07,weatherlink.com 1.10,2013-02-23 09:46:00,
2013-02-23 05:01:00,36.8,35.0,30.07,North,5,0.0,-999.0,92,-99.99,,,0.08,weatherlink.com 1.10,2013-02-23 10:01:00,
2013-02-23 05:15:00,36.8,35.0,30.05,North,360,1.0,-999.0,92,-99.99,,,0.09,weatherlink.com 1.10,2013-02-23 10:15:00,
2013-02-23 05:31:00,36.8,35.0,30.02,NE,48,2.0,-999.0,92,-99.99,,,0.11,weatherlink.com 1.10,2013-02-23 10:31:00,
2013-02-23 05:46:00,36.7,35.0,30.00,NE,37,0.0,-999.0,92,-99.99,,,0.11,weatherlink.com 1.10,2013-02-23 10:46:00,
2013-02-23 06:01:00,36.8,35.0,30.01,NNE,13,2.0,-999.0,92,-99.99,,,0.11,weatherlink.com 1.10,2013-02-23 11:01:00,
2013-02-23 06:16:00,36.9,35.0,30.03,NNE,30,0.0,-999.0,92,-99.99,,,0.11,weatherlink.com 1.10,2013-02-23 11:16:00,
2013-02-23 06:31:00,36.9,35.0,30.04,NNE,30,0.0,-999.0,92,-99.99,,,0.11,weatherlink.com 1.10,2013-02-23 11:31:00,
2013-02-23 06:46:00,37.0,35.0,30.03,NNE,30,0.0,-999.0,92,-99.99,,,0.13,weatherlink.com 1.10,2013-02-23 11:46:00,
2013-02-23 07:01:00,37.0,35.0,30.02,ENE,74,1.0,-999.0,92,-99.99,,,0.15,weatherlink.com 1.10,2013-02-23 12:01:00,
2013-02-23 07:16:00,36.9,35.0,30.02,NNW,346,1.0,-999.0,92,-99.99,,,0.15,weatherlink.com 1.10,2013-02-23 12:16:00,
2013-02-23 07:31:00,36.9,35.0,30.03,North,350,0.0,-999.0,92,-99.99,,,0.16,weatherlink.com 1.10,2013-02-23 12:31:00,
2013-02-23 07:47:00,36.9,35.0,30.04,NNW,345,0.0,-999.0,92,-99.99,,,0.17,weatherlink.com 1.10,2013-02-23 12:47:00,
2013-02-23 08:02:00,37.0,35.0,30.04,NNW,346,0.0,-999.0,92,-99.99,,,0.19,weatherlink.com 1.10,2013-02-23 13:02:00,
2013-02-23 08:17:00,37.2,35.0,30.03,NNW,346,0.0,-999.0,92,-99.99,,,0.20,weatherlink.com 1.10,2013-02-23 13:17:00,
2013-02-23 08:32:00,37.2,35.0,30.03,North,355,0.0,-999.0,92,-99.99,,,0.23,weatherlink.com 1.10,2013-02-23 13:32:00,
2013-02-23 08:47:00,37.3,35.0,30.03,North,5,1.0,-999.0,92,-99.99,,,0.23,weatherlink.com 1.10,2013-02-23 13:47:00,
2013-02-23 09:02:00,37.4,35.0,30.02,North,10,0.0,-999.0,92,-99.99,,,0.25,weatherlink.com 1.10,2013-02-23 14:02:00,
2013-02-23 09:17:00,37.5,35.0,30.04,SE,131,0.0,-999.0,92,-99.99,,,0.25,weatherlink.com 1.10,2013-02-23 14:17:00,
2013-02-23 09:32:00,37.7,36.0,30.05,SE,131,0.0,-999.0,92,-99.99,,,0.27,weatherlink.com 1.10,2013-02-23 14:32:00,
2013-02-23 09:47:00,37.8,36.0,30.05,ESE,123,0.0,-999.0,92,-99.99,,,0.32,weatherlink.com 1.10,2013-02-23 14:47:00,
2013-02-23 10:02:00,38.0,36.0,30.04,North,355,0.0,-999.0,92,-99.99,,,0.35,weatherlink.com 1.10,2013-02-23 15:02:00,
2013-02-23 10:17:00,38.4,36.0,30.02,NE,35,0.0,-999.0,92,-99.99,,,0.37,weatherlink.com 1.10,2013-02-23 15:17:00,
2013-02-23 10:32:00,38.5,36.0,30.02,North,9,0.0,-999.0,92,-99.99,,,0.38,weatherlink.com 1.10,2013-02-23 15:32:00,
2013-02-23 10:47:00,38.7,37.0,30.03,NNW,329,0.0,-999.0,92,-99.99,,,0.38,weatherlink.com 1.10,2013-02-23 15:47:00,
2013-02-23 11:02:00,38.9,37.0,30.02,NNW,341,0.0,-999.0,92,-99.99,,,0.38,weatherlink.com 1.10,2013-02-23 16:02:00,
2013-02-23 11:17:00,39.4,38.0,30.02,NNW,331,0.0,-999.0,93,-99.99,,,0.38,weatherlink.com 1.10,2013-02-23 16:17:00,
2013-02-23 11:33:00,39.8,38.0,30.02,NW,319,2.0,-999.0,92,-99.99,,,0.38,weatherlink.com 1.10,2013-02-23 16:33:00,
2013-02-23 11:48:00,40.2,38.0,30.02,North,360,0.0,-999.0,92,-99.99,,,0.38,weatherlink.com 1.10,2013-02-23 16:48:00,
2013-02-23 12:03:00,40.5,38.0,30.03,NW,323,0.0,-999.0,92,-99.99,,,0.38,weatherlink.com 1.10,2013-02-23 17:03:00,
2013-02-23 12:18:00,40.9,39.0,30.02,North,355,2.0,-999.0,92,-99.99,,,0.38,weatherlink.com 1.10,2013-02-23 17:18:00,
2013-02-23 12:33:00,41.3,39.0,30.01,ESE,121,0.0,-999.0,91,-99.99,,,0.38,weatherlink.com 1.10,2013-02-23 17:33:00,
2013-02-23 12:48:00,41.6,39.0,30.00,NNW,328,3.0,-999.0,91,-99.99,,,0.38,weatherlink.com 1.10,2013-02-23 17:48:00,
2013-02-23 13:03:00,41.8,39.0,29.99,NNW,343,1.0,-999.0,90,-99.99,,,0.38,weatherlink.com 1.10,2013-02-23 18:03:00,
2013-02-23 13:18:00,42.5,40.0,29.97,East,90,1.0,-999.0,90,-99.99,,,0.38,weatherlink.com 1.10,2013-02-23 18:18:00,
2013-02-23 13:33:00,43.0,40.0,29.98,North,5,1.0,-999.0,90,-99.99,,,0.38,weatherlink.com 1.10,2013-02-23 18:33:00,
2013-02-23 13:49:00,43.4,40.0,29.96,NE,37,0.0,-999.0,89,-99.99,,,0.38,weatherlink.com 1.10,2013-02-23 18:49:00,
2013-02-23 14:04:00,43.7,41.0,29.96,NW,318,1.0,-999.0,89,-99.99,,,0.38,weatherlink.com 1.10,2013-02-23 19:04:00,
2013-02-23 14:19:00,44.2,41.0,29.96,NW,319,0.0,-999.0,89,-99.99,,,0.38,weatherlink.com 1.10,2013-02-23 19:19:00,
2013-02-23 14:34:00,44.2,41.0,29.96,NW,319,0.0,-999.0,88,-99.99,,,0.38,weatherlink.com 1.10,2013-02-23 19:34:00,
2013-02-23 14:49:00,44.3,41.0,29.96,NW,319,0.0,-999.0,88,-99.99,,,0.38,weatherlink.com 1.10,2013-02-23 19:49:00,
2013-02-23 15:04:00,44.4,41.0,29.95,NW,319,0.0,-999.0,88,-99.99,,,0.38,weatherlink.com 1.10,2013-02-23 20:04:00,
2013-02-23 15:19:00,44.4,41.0,29.95,NW,319,0.0,-999.0,88,-99.99,,,0.38,weatherlink.com 1.10,2013-02-23 20:19:00,
2013-02-23 15:34:00,44.4,41.0,29.95,NW,319,2.0,-999.0,88,-99.99,,,0.38,weatherlink.com 1.10,2013-02-23 20:34:00,
2013-02-23 15:49:00,44.5,41.0,29.95,NW,319,0.0,-999.0,88,-99.99,,,0.38,weatherlink.com 1.10,2013-02-23 20:49:00,
2013-02-23 16:04:00,44.6,41.0,29.95,NW,319,0.0,-999.0,87,-99.99,,,0.38,weatherlink.com 1.10,2013-02-23 21:04:00,
2013-02-23 16:19:00,44.8,41.0,29.95,NW,319,0.0,-999.0,87,-99.99,,,0.38,weatherlink.com 1.10,2013-02-23 21:19:00,
2013-02-23 16:34:00,45.0,42.0,29.94,NW,319,0.0,-999.0,88,-99.99,,,0.38,weatherlink.com 1.10,2013-02-23 21:34:00,
2013-02-23 16:50:00,45.0,41.0,29.93,NW,319,0.0,-999.0,87,-99.99,,,0.38,weatherlink.com 1.10,2013-02-23 21:50:00,
2013-02-23 17:05:00,44.9,41.0,29.92,NW,319,0.0,-999.0,87,-99.99,,,0.38,weatherlink.com 1.10,2013-02-23 22:05:00,
2013-02-23 17:20:00,45.0,42.0,29.93,NW,319,0.0,-999.0,88,-99.99,,,0.38,weatherlink.com 1.10,2013-02-23 22:20:00,
2013-02-23 17:35:00,45.0,42.0,29.91,NW,319,0.0,-999.0,88,-99.99,,,0.38,weatherlink.com 1.10,2013-02-23 22:35:00,
2013-02-23 17:50:00,45.0,42.0,29.90,NW,319,0.0,-999.0,88,-99.99,,,0.38,weatherlink.com 1.10,2013-02-23 22:50:00,
2013-02-23 18:05:00,44.9,42.0,29.90,NW,319,0.0,-999.0,88,-99.99,,,0.38,weatherlink.com 1.10,2013-02-23 23:05:00,
2013-02-23 18:20:00,44.7,42.0,29.91,NW,319,0.0,-999.0,89,-99.99,,,0.38,weatherlink.com 1.10,2013-02-23 23:20:00,
2013-02-23 18:35:00,44.7,42.0,29.90,NW,319,0.0,-999.0,89,-99.99,,,0.38,weatherlink.com 1.10,2013-02-23 23:35:00,
2013-02-23 18:50:00,44.5,42.0,29.89,NW,319,0.0,-999.0,89,-99.99,,,0.38,weatherlink.com 1.10,2013-02-23 23:50:00,
2013-02-23 19:05:00,44.3,42.0,29.91,NW,319,0.0,-999.0,90,-99.99,,,0.38,weatherlink.com 1.10,2013-02-24 00:05:00,
2013-02-23 19:20:00,44.3,42.0,29.91,NW,319,0.0,-999.0,90,-99.99,,,0.38,weatherlink.com 1.10,2013-02-24 00:20:00,
2013-02-23 19:35:00,44.2,42.0,29.91,NW,319,0.0,-999.0,90,-99.99,,,0.38,weatherlink.com 1.10,2013-02-24 00:35:00,
2013-02-23 19:51:00,44.1,42.0,29.91,NW,319,0.0,-999.0,91,-99.99,,,0.38,weatherlink.com 1.10,2013-02-24 00:51:00,
2013-02-23 20:06:00,44.1,42.0,29.91,NW,319,0.0,-999.0,91,-99.99,,,0.38,weatherlink.com 1.10,2013-02-24 01:06:00,
2013-02-23 20:21:00,44.0,42.0,29.91,NW,319,0.0,-999.0,91,-99.99,,,0.38,weatherlink.com 1.10,2013-02-24 01:21:00,
2013-02-23 20:36:00,44.0,42.0,29.90,NW,321,0.0,-999.0,91,-99.99,,,0.38,weatherlink.com 1.10,2013-02-24 01:36:00,
2013-02-23 20:51:00,44.0,42.0,29.89,NW,321,0.0,-999.0,91,-99.99,,,0.38,weatherlink.com 1.10,2013-02-24 01:51:00,
2013-02-23 21:06:00,44.1,42.0,29.91,ENE,76,0.0,-999.0,92,-99.99,,,0.38,weatherlink.com 1.10,2013-02-24 02:06:00,
2013-02-23 21:21:00,44.0,42.0,29.92,ENE,76,0.0,-999.0,91,-99.99,,,0.38,weatherlink.com 1.10,2013-02-24 02:21:00,
2013-02-23 21:36:00,44.0,42.0,29.91,ENE,76,0.0,-999.0,91,-99.99,,,0.38,weatherlink.com 1.10,2013-02-24 02:36:00,
2013-02-23 21:51:00,44.0,42.0,29.90,ENE,76,0.0,-999.0,91,-99.99,,,0.38,weatherlink.com 1.10,2013-02-24 02:51:00,
2013-02-23 22:06:00,43.9,42.0,29.90,ENE,76,0.0,-999.0,91,-99.99,,,0.38,weatherlink.com 1.10,2013-02-24 03:06:00,
2013-02-23 22:21:00,44.0,42.0,29.90,ENE,76,0.0,-999.0,91,-99.99,,,0.38,weatherlink.com 1.10,2013-02-24 03:21:00,
2013-02-23 22:36:00,44.0,42.0,29.90,ENE,76,0.0,-999.0,91,-99.99,,,0.38,weatherlink.com 1.10,2013-02-24 03:36:00,
2013-02-23 22:51:00,44.0,42.0,29.89,ENE,76,0.0,-999.0,92,-99.99,,,0.38,weatherlink.com 1.10,2013-02-24 03:51:00,
2013-02-23 23:06:00,44.0,42.0,29.89,ENE,76,0.0,-999.0,92,-99.99,,,0.38,weatherlink.com 1.10,2013-02-24 04:06:00,
2013-02-23 23:22:00,43.9,42.0,29.89,ENE,76,0.0,-999.0,92,-99.99,,,0.38,weatherlink.com 1.10,2013-02-24 04:22:00,
2013-02-23 23:37:00,43.9,42.0,29.89,ENE,76,0.0,-999.0,92,-99.99,,,0.38,weatherlink.com 1.10,2013-02-24 04:37:00,
2013-02-23 23:52:00,44.0,42.0,29.89,ENE,76,0.0,-999.0,92,-99.99,,,0.38,weatherlink.com 1.10,2013-02-24 04:52:00,